Location: Unspecified
(0.0000°N, 0.0000°E)
Time: 23:49:25
(UTC+00:00)

CHUBUSAT 3 - Visible Passes

Search period start: 01 March 2021 00:00
Search period end: 11 March 2021 00:00
Orbit: 556 x 574 km, 31.0° (Epoch: 01 March)

Date Brightness Start Highest point End Pass type
(mag) Time Alt. Az. Time Alt. Az. Time Alt. Az.
05 Mar ? 20:30:41 10° SW 20:30:48 11° SW 20:30:48 11° SW visible
06 Mar ? 18:49:45 10° S 18:51:24 12° SSE 18:53:02 10° SE visible
06 Mar ? 20:28:48 10° SW 20:29:32 15° SW 20:29:32 15° SW visible
07 Mar ? 18:46:45 10° SSW 18:49:48 19° SSE 18:52:25 12° ESE visible
07 Mar ? 20:27:10 10° WSW 20:28:20 18° WSW 20:28:20 18° WSW visible
08 Mar ? 18:44:22 10° SSW 18:48:10 29° SSE 18:51:18 13° E visible
08 Mar ? 20:25:45 10° W 20:27:13 19° W 20:27:13 19° W visible
09 Mar ? 18:42:19 10° SW 18:46:30 49° SSE 18:50:14 13° ENE visible
09 Mar ? 20:24:39 10° W 20:26:10 17° WNW 20:26:10 17° WNW visible
10 Mar ? 05:03:23 10° NNE 05:03:56 10° NNE 05:04:30 10° NE visible
10 Mar ? 18:40:31 10° SW 18:44:49 85° SSE 18:49:08 10° ENE visible
10 Mar ? 20:24:03 10° WNW 20:25:08 13° NW 20:25:08 13° NW visible
